Simultaneous Nadir Overpasses (SNOs) Predictions

Prediction of SNOs between AQUA and GOES-15 Satellite Orbit:

Table of predicted SNOs for the next 14.0 days since TLE Epoch: 11/23/2013
Index Date Time (AQUA) AQUA Lat,Lon GOES-15 Lat,Lon Distance(km) Time Diff (sec)
1 11/23/2013 22:29:45 0.39,-133.60 0.01,-135.42 206.72 80
2 11/24/2013 10:51:01 0.65,-138.76 -0.03,-135.48 372.88 80
3 11/26/2013 10:38:48 0.04,-135.80 -0.03,-135.50 34.41 80
4 11/28/2013 10:26:35 -0.62,-132.84 -0.02,-135.50 303.71 80
5 11/28/2013 22:47:58 -0.52,-138.02 0.05,-135.44 293.35 80
6 11/30/2013 22:35:44 0.12,-135.05 0.04,-135.44 44.14 80
7 12/02/2013 22:23:29 0.75,-132.08 0.03,-135.43 381.03 80
8 12/03/2013 10:44:44 0.31,-137.24 -0.05,-135.48 199.45 80
9 12/05/2013 10:32:28 -0.31,-134.26 -0.05,-135.46 136.76 80
10 12/05/2013 22:53:50 -0.79,-139.44 0.07,-135.40 460.14 80




NCC Satellite Simultaneous Nadir Overpasses (SNOs) Prediction Service
